To NAV CANADA Home Page Login to a new session Search on AWWS site Feedback and Comments Disclaimer Vers la page française équivalente Tips FAQ What's new on the site To the Forecasts and Observations / NOTAM section To "File a Flight Plan" website Publications and other links Update of the User's profile FIC Telephone Numbers My Weather Data Folder Route Weather Data Regional Weather Data Local Weather Data To the Forecasts and Observations / NOTAM section
Request Generated 05/03/2016 at 20:08:49 UTC . Weather information available at that time is displayed.

METAR/TAF

BERENS RIVER/MB    

METAR CYBV 032000Z 33016G26KT 15SM FEW025 06/01 A3003 RMK SC1 SLP180=
METAR CYBV 031900Z 34016KT 15SM FEW025 06/01 A3002 RMK SC2 SLP179=
METAR CYBV 031800Z 32015G20KT 15SM SCT025 06/01 A3001 RMK SC3 SLP176=

CYBV - No TAF is issued for this station

Your time UTC time
Weather data provided by Environment Canada and NAV CANADA